星链-2406 (STARLINK-2406 )

导读 | 星芒AI

STARLINK-2406 是 SpaceX Starlink 项目中的一颗低轨通信卫星,旨在为全球用户提供高速互联网服务。该卫星采用先进的推进和通信技术,具备高带宽和低延迟特性。作为 Starlink 卫星群的一部分,它运行在约 550 公里的轨道高度,与其他卫星协同工作,构建全球覆盖的宽带网络。STARLINK-2406 的发射和部署有助于提升偏远地区的网络接入能力,支持多种应用场景,包括教育、医疗和远程办公等。

基本信息
目录编号:
47821
目录名称:
STARLINK-2406
国际标识:
2021-018AL
轨道中心:
EARTH
卫星名称:
星链-2406
卫星全名:
星链-2406 (STARLINK-2406 )
卫星状态:
在轨 (已飞行1743 天)
发射日期:
2021-03-11 UTC
国别 :
美国 (US)
星等 :
--
轨道信息
数据来源 国际轨道数据 AOE轨道数据
星历时间 2025-12-17T12:08:35+0800
22小时前
查看轨道信息
2025-12-16T15:00:00+0800
1天前
查看轨道信息
半长轴 6925.33km 6925.23km
偏心率 0.0002004 0.0002153
轨道倾角 53.054° 53.052°
近地点辐角 97.387° 101.931°
升交点赤经 262.062° 266.018°
平近点角 262.735° 158.095°
近地点 545.807km 545.603km
远地点 548.583km 548.587km
周期 95.592分钟 95.590分钟
每日圈数 15.064061 15.064387
详细信息
固有亮度:
5
最大亮度:
2.5
卫星平台:
Starlink V1.0
覆盖范围:
全球
运营商:
太空探索技术公司
运营商所在国:
美国
制造商(研发单位):
太空探索技术公司
制造商所在国:
美国
使用方式:
暂无
卫星简介
星链(Starlink)计划是由太空探索技术公司(SpaceX)提出的一个巨型低轨卫星互联网星座项目,计划在2019年至2024年间在太空搭建由约1.2万颗卫星组成的“星链”网络,其中1584颗将部署在地球上空550千米处的近地轨道,并从2020年开始工作。该卫星仍在工作。
2D轨道图
3D轨道图
轨道高度分析图
轨道倾角分析图
轨道综合分析图
查看轨道综合分析图